| time (UTC) | temp C | wind direction | speed KPH | gust KPH | rain 1hr cm | rain 24hr cm | rain mn cm | humidity % | barometer mb |
| 20260506215016 | 18 | 0.0 | 0.0 | 0.00 | 0.10 | 0.10 | 69 | 1014.5 | |
| 20260506214015 | 18 | 0.0 | 0.0 | 0.00 | 0.10 | 0.10 | 69 | 1014.4 | |
| 20260506213016 | 18 | 0.0 | 0.0 | 0.00 | 0.10 | 0.10 | 70 | 1014.8 | |
| 20260506212016 | 17 | 0.0 | 0.0 | 0.00 | 0.10 | 0.10 | 70 | 1014.6 | |
| 20260506211015 | 17 | 0.0 | 0.0 | 0.00 | 0.10 | 0.10 | 70 | 1014.8 | |
| 20260506210015 | 17 | 0.0 | 0.0 | 0.00 | 0.10 | 0.10 | 71 | 1014.7 | |
| 20260506205015 | 17 | 0.0 | 0.0 | 0.00 | 0.10 | 0.10 | 71 | 1014.9 | |
| 20260506204016 | 17 | 0.0 | 0.0 | 0.00 | 0.10 | 0.10 | 70 | 1014.9 | |
| 20260506203016 | 17 | 0.0 | 0.0 | 0.00 | 0.10 | 0.10 | 70 | 1014.8 | |
| 20260506202016 | 17 | 0.0 | 0.0 | 0.00 | 0.10 | 0.10 | 72 | 1015.0 | |
| 20260506201015 | 17 | 0.0 | 0.0 | 0.00 | 0.10 | 0.10 | 71 | 1015.4 | |
| 20260506200016 | 16 | 0.0 | 0.0 | 0.00 | 0.10 | 0.10 | 72 | 1015.5 | |
| 20260506195015 | 16 | 0.0 | 0.0 | 0.00 | 0.10 | 0.10 | 71 | 1015.5 | |
| 20260506194015 | 16 | 0.0 | 0.0 | 0.00 | 0.10 | 0.10 | 72 | 1015.4 | |
| 20260506193016 | 16 | 0.0 | 0.0 | 0.00 | 0.10 | 0.10 | 73 | 1015.7 | |
| 20260506192015 | 16 | 0.0 | 0.0 | 0.00 | 0.10 | 0.10 | 74 | 1015.8 | |
| 20260506191015 | 15 | 0.0 | 0.0 | 0.00 | 0.10 | 0.10 | 73 | 1016.1 | |
| 20260506190015 | 15 | 0.0 | 0.0 | 0.00 | 0.10 | 0.10 | 74 | 1016.1 | |
| 20260506185015 | 15 | 0.0 | 0.0 | 0.00 | 0.10 | 0.10 | 74 | 1016.1 | |
| 20260506184015 | 15 | 0.0 | 0.0 | 0.00 | 0.10 | 0.10 | 74 | 1016.0 | |
| 20260506183015 | 15 | 0.0 | 0.0 | 0.00 | 0.10 | 0.10 | 78 | 1015.3 | |
| 20260506182015 | 14 | 0.0 | 0.0 | 0.00 | 0.10 | 0.10 | 78 | 1015.2 | |
| 20260506181015 | 13 | 0.0 | 0.0 | 0.00 | 0.10 | 0.10 | 82 | 1015.3 | |
| 20260506180015 | 13 | 0.0 | 0.0 | 0.00 | 0.10 | 0.10 | 85 | 1015.2 | |
| 20260506175015 | 12 | 0.0 | 0.0 | 0.00 | 0.10 | 0.10 | 85 | 1015.5 | |
| 20260506174015 | 12 | 0.0 | 0.0 | 0.00 | 0.10 | 0.10 | 87 | 1015.8 | |
| 20260506173015 | 12 | 0.0 | 0.0 | 0.00 | 0.10 | 0.10 | 88 | 1015.6 | |
| 20260506172015 | 12 | 0.0 | 0.0 | 0.00 | 0.10 | 0.10 | 89 | 1015.6 | |
| 20260506171015 | 11 | 0.0 | 0.0 | 0.00 | 0.10 | 0.10 | 89 | 1015.3 | |
| 20260506170015 | 11 | 0.0 | 0.0 | 0.00 | 0.10 | 0.10 | 89 | 1015.2 | |
| 20260506165015 | 11 | 0.0 | 0.0 | 0.00 | 0.10 | 0.10 | 89 | 1015.6 | |
| 20260506164035 | 11 | 0.0 | 0.0 | 0.00 | 0.10 | 0.10 | 89 | 1015.5 | |
| 20260506163015 | 11 | 0.0 | 0.0 | 0.00 | 0.10 | 0.10 | 89 | 1015.6 | |
| 20260506162035 | 11 | 0.0 | 0.0 | 0.03 | 0.10 | 0.10 | 89 | 1015.7 | |
| 20260506161015 | 11 | 0.0 | 0.0 | 0.03 | 0.10 | 0.10 | 89 | 1015.4 | |
| 20260506160015 | 11 | 0.0 | 0.0 | 0.03 | 0.10 | 0.10 | 90 | 1014.5 | |
| 20260506155015 | 11 | 0.0 | 0.0 | 0.08 | 0.10 | 0.10 | 90 | 1014.6 | |
| 20260506154015 | 11 | 0.0 | 0.0 | 0.10 | 0.10 | 0.10 | 89 | 1014.9 | |
| 20260506153015 | 11 | 0.0 | 0.0 | 0.10 | 0.10 | 0.10 | 89 | 1015.9 | |
| 20260506152035 | 11 | 0.0 | 0.0 | 0.08 | 0.08 | 0.08 | 89 | 1015.4 | |
| 20260506151015 | 11 | 0.0 | 0.0 | 0.08 | 0.08 | 0.08 | 88 | 1015.7 | |
| 20260506150015 | 11 | 0.0 | 0.0 | 0.08 | 0.08 | 0.08 | 88 | 1016.3 | |
| 20260506145015 | 11 | 0.0 | 0.0 | 0.03 | 0.03 | 0.03 | 87 | 1017.3 | |
| 20260506144015 | 11 | 0.0 | 0.0 | 0.00 | 0.00 | 0.00 | 86 | 1016.7 | |
| 20260506143057 | 11 | 0.0 | 0.0 | 0.00 | 0.00 | 0.00 | 86 | 1016.6 | |
| 20260506142037 | 11 | 0.0 | 0.0 | 0.00 | 0.00 | 0.00 | 85 | 1015.3 | |
| 20260506141017 | 11 | 0.0 | 0.0 | 0.00 | 0.00 | 0.00 | 84 | 1015.2 | |
| 20260506140017 | 11 | 0.0 | 0.0 | 0.00 | 0.00 | 0.00 | 84 | 1015.8 | |
| 20260506135017 | 11 | 0.0 | 0.0 | 0.00 | 0.00 | 0.00 | 84 | 1015.9 | |
| 20260506134017 | 11 | 0.0 | 0.0 | 0.00 | 0.00 | 0.00 | 83 | 1015.9 | |
| 20260506133017 | 11 | 0.0 | 0.0 | 0.00 | 0.00 | 0.00 | 83 | 1015.1 | |
| 20260506132017 | 11 | 0.0 | 0.0 | 0.00 | 0.00 | 0.00 | 83 | 1014.7 | |
| 20260506131017 | 11 | 0.0 | 0.0 | 0.00 | 0.00 | 0.00 | 83 | 1014.7 | |
| 20260506130017 | 11 | 0.0 | 0.0 | 0.00 | 0.00 | 0.00 | 82 | 1014.6 | |
| 20260506125017 | 11 | 0.0 | 0.0 | 0.00 | 0.00 | 0.00 | 82 | 1014.3 | |
| 20260506124017 | 11 | 0.0 | 0.0 | 0.00 | 0.00 | 0.00 | 81 | 1014.0 | |
| 20260506123017 | 11 | 0.0 | 0.0 | 0.00 | 0.00 | 0.00 | 81 | 1014.1 | |
| 20260506122017 | 12 | 0.0 | 0.0 | 0.00 | 0.00 | 0.00 | 79 | 1014.1 | |
| 20260506121037 | 12 | 0.0 | 0.0 | 0.00 | 0.00 | 0.00 | 78 | 1014.0 | |
| 20260506120037 | 12 | 0.0 | 0.0 | 0.00 | 0.00 | 0.00 | 77 | 1013.9 | |
| 20260506115017 | 12 | 0.0 | 0.0 | 0.00 | 0.00 | 0.00 | 77 | 1014.0 | |
| 20260506114017 | 12 | 0.0 | 0.0 | 0.00 | 0.00 | 0.00 | 77 | 1013.8 | |
| 20260506113017 | 12 | 0.0 | 0.0 | 0.00 | 0.00 | 0.00 | 76 | 1013.6 | |
| 20260506112057 | 13 | 0.0 | 0.0 | 0.00 | 0.00 | 0.00 | 77 | 1013.4 | |
| 20260506111017 | 13 | 0.0 | 0.0 | 0.00 | 0.00 | 0.00 | 77 | 1013.3 | |
| 20260506110057 | 13 | 0.0 | 0.0 | 0.00 | 0.00 | 0.00 | 77 | 1012.9 | |
| 20260506105017 | 13 | 0.0 | 0.0 | 0.00 | 0.00 | 0.00 | 77 | 1012.8 | |
| 20260506104016 | 13 | 0.0 | 0.0 | 0.00 | 0.00 | 0.00 | 77 | 1012.7 | |
| 20260506103016 | 13 | 0.0 | 0.0 | 0.00 | 0.00 | 0.00 | 76 | 1012.7 | |
| 20260506102016 | 13 | 0.0 | 0.0 | 0.00 | 0.00 | 0.00 | 76 | 1012.5 | |
| 20260506101016 | 13 | 0.0 | 0.0 | 0.00 | 0.00 | 0.00 | 76 | 1012.4 | |
| 20260506100037 | 13 | 0.0 | 0.0 | 0.00 | 0.00 | 0.00 | 77 | 1012.1 | |
| 20260506095017 | 13 | 0.0 | 0.0 | 0.00 | 0.00 | 0.00 | 76 | 1012.0 | |
| 20260506094016 | 13 | 0.0 | 0.0 | 0.00 | 0.00 | 0.00 | 77 | 1011.8 | |
| 20260506093017 | 13 | 0.0 | 0.0 | 0.00 | 0.00 | 0.00 | 76 | 1011.9 | |
| 20260506092016 | 13 | 0.0 | 0.0 | 0.00 | 0.00 | 0.00 | 77 | 1012.1 | |
| 20260506091016 | 13 | 0.0 | 0.0 | 0.00 | 0.00 | 0.00 | 77 | 1011.9 | |
| 20260506090016 | 13 | 0.0 | 0.0 | 0.00 | 0.00 | 0.00 | 76 | 1011.8 | |
| 20260506085016 | 14 | 0.0 | 0.0 | 0.00 | 0.00 | 0.00 | 77 | 1011.9 | |
| 20260506084017 | 14 | 0.0 | 0.0 | 0.00 | 0.00 | 0.00 | 78 | 1011.8 | |
| 20260506083017 | 14 | 0.0 | 0.0 | 0.00 | 0.00 | 0.00 | 78 | 1011.6 | |
| 20260506082016 | 14 | 0.0 | 0.0 | 0.00 | 0.00 | 0.00 | 77 | 1011.5 | |
| 20260506081036 | 14 | 0.0 | 0.0 | 0.00 | 0.00 | 0.00 | 78 | 1011.5 | |
| 20260506073016 | 14 | 0.0 | 0.0 | 0.00 | 0.00 | 0.00 | 80 | 1011.6 | |
| 20260506072016 | 14 | 0.0 | 0.0 | 0.00 | 0.00 | 0.00 | 80 | 1011.4 | |
| 20260506071016 | 15 | 0.0 | 0.0 | 0.00 | 0.00 | 0.00 | 80 | 1010.9 | |
| 20260506062016 | 15 | 0.0 | 0.0 | 0.00 | 0.00 | 0.00 | 79 | 1010.8 | |
| 20260506061016 | 15 | 0.0 | 0.0 | 0.00 | 0.00 | 0.00 | 79 | 1011.0 | |
| 20260506051016 | 16 | 0.0 | 0.0 | 0.00 | 0.00 | 0.00 | 76 | 1011.1 | |
| 20260506045035 | 17 | 0.0 | 0.0 | 0.00 | 0.00 | 0.00 | 76 | 1010.9 | |
| 20260506044035 | 17 | 0.0 | 0.0 | 0.00 | 0.00 | 0.00 | 76 | 1010.8 | |
| 20260506043017 | 17 | 0.0 | 0.0 | 0.00 | 0.00 | 0.00 | 74 | 1010.7 | |
| 20260506042017 | 17 | 0.0 | 0.0 | 0.00 | 0.00 | 0.00 | 74 | 1010.7 | |
| 20260506041037 | 17 | 0.0 | 0.0 | 0.00 | 0.00 | 0.00 | 73 | 1010.6 | |
| 20260506040017 | 17 | 0.0 | 0.0 | 0.00 | 0.00 | 0.00 | 73 | 1010.8 | |
| 20260506035017 | 18 | 0.0 | 0.0 | 0.00 | 0.00 | 0.00 | 73 | 1010.6 | |
| 20260506034017 | 18 | 0.0 | 0.0 | 0.00 | 0.00 | 0.00 | 73 | 1010.5 | |
| 20260506033017 | 18 | 0.0 | 0.0 | 0.00 | 0.00 | 0.00 | 73 | 1010.1 | |
| 20260506032037 | 18 | 0.0 | 0.0 | 0.00 | 0.00 | 0.00 | 73 | 1009.8 | |
| 20260506031037 | 18 | 0.0 | 0.0 | 0.00 | 0.00 | 0.00 | 73 | 1009.6 | |
| 20260506030017 | 18 | 0.0 | 0.0 | 0.00 | 0.00 | 0.00 | 73 | 1009.4 | |
| 20260506025017 | 19 | 0.0 | 0.0 | 0.00 | 0.00 | 0.00 | 73 | 1009.1 | |
| 20260506024017 | 19 | 0.0 | 0.0 | 0.00 | 0.00 | 0.00 | 72 | 1008.9 | |
| 20260506023017 | 19 | 0.0 | 0.0 | 0.00 | 0.00 | 0.00 | 71 | 1008.9 | |
| 20260506022037 | 19 | 0.0 | 0.0 | 0.00 | 0.00 | 0.00 | 70 | 1008.7 | |
| 20260506021037 | 20 | 0.0 | 0.0 | 0.00 | 0.00 | 0.00 | 70 | 1008.6 | |
| 20260506020017 | 20 | 0.0 | 0.0 | 0.00 | 0.00 | 0.00 | 71 | 1008.5 | |
| 20260506015037 | 20 | 0.0 | 0.0 | 0.00 | 0.00 | 0.00 | 70 | 1008.4 | |
| 20260506014036 | 20 | 0.0 | 0.0 | 0.00 | 0.00 | 0.00 | 70 | 1007.9 | |
| 20260506013016 | 20 | 0.0 | 0.0 | 0.00 | 0.00 | 0.00 | 69 | 1007.5 | |
| 20260506012016 | 21 | 0.0 | 0.0 | 0.00 | 0.00 | 0.00 | 69 | 1007.4 | |
| 20260506011037 | 21 | 0.0 | 0.0 | 0.00 | 0.00 | 0.00 | 68 | 1007.1 | |
| 20260506010017 | 21 | 0.0 | 0.0 | 0.00 | 0.00 | 0.00 | 68 | 1006.9 | |
| 20260506005017 | 22 | 0.0 | 0.0 | 0.00 | 0.00 | 0.00 | 67 | 1006.9 | |
| 20260506004016 | 22 | 0.0 | 0.0 | 0.00 | 0.00 | 0.00 | 68 | 1006.7 | |
| 20260506003016 | 22 | 0.0 | 0.0 | 0.00 | 0.00 | 0.00 | 67 | 1006.4 | |
| 20260506002016 | 22 | 0.0 | 0.0 | 0.00 | 0.00 | 0.00 | 66 | 1006.1 | |
| 20260506001017 | 23 | 0.0 | 0.0 | 0.00 | 0.00 | 0.00 | 64 | 1006.3 | |
| 20260506000036 | 23 | 0.0 | 0.0 | 0.00 | 0.00 | 0.00 | 64 | 1006.1 | |
| 20260505235016 | 23 | 0.0 | 0.0 | 0.00 | 0.00 | 0.00 | 64 | 1006.2 | |
| 20260505234016 | 23 | 0.0 | 0.0 | 0.00 | 0.00 | 0.00 | 62 | 1006.2 | |
| 20260505233037 | 24 | 0.0 | 0.0 | 0.00 | 0.00 | 0.00 | 62 | 1006.1 | |
| 20260505232057 | 25 | 45 | 4.8 | 22.5 | 0.00 | 0.00 | 0.00 | 62 | 1006.1 |
| 20260505231016 | 25 | 0 | 1.6 | 12.9 | 0.00 | 0.00 | 0.00 | 60 | 1006.2 |
| 20260505230017 | 26 | 45 | 4.8 | 20.9 | 0.00 | 0.00 | 0.00 | 59 | 1005.9 |
| 20260505225016 | 26 | 23 | 9.7 | 25.7 | 0.00 | 0.00 | 0.00 | 60 | 1006.0 |
| 20260505224016 | 26 | 23 | 8.0 | 19.3 | 0.00 | 0.00 | 0.00 | 60 | 1005.8 |
| 20260505223016 | 27 | 23 | 8.0 | 20.9 | 0.00 | 0.00 | 0.00 | 60 | 1005.5 |
| 20260505222017 | 27 | 23 | 6.4 | 17.7 | 0.00 | 0.00 | 0.00 | 59 | 1005.4 |
| 20260505221056 | 28 | 23 | 6.4 | 19.3 | 0.00 | 0.00 | 0.00 | 57 | 1005.3 |
| 20260505220016 | 28 | 23 | 6.4 | 20.9 | 0.00 | 0.00 | 0.00 | 55 | 1005.3 |